Weather History for Colorado City, AZ

Change the Weather History Date:

Tuesday, March 18, 2014

  Actual Average (KCDC) Record (KCDC)
Temperature  
Mean Temperature 38 °F 41 °F  
Max Temperature 55 °F 55 °F 75 °F (2007)
Min Temperature 20 °F 26 °F 14 °F (1954)
Degree Days  
Heating Degree Days 28 24  
Month to date heating degree days 471  
Since 1 July heating degree days 5033  
Cooling Degree Days 0 0  
Month to date cooling degree days 0  
Year to date cooling degree days 0  
Moisture  
Dew Point 1 °F    
Average Humidity 22    
Maximum Humidity 49    
Minimum Humidity 10    
Precipitation  
Precipitation 0.00 in 0.04 in 1.28 in (1961)
Month to date precipitation 0.78  
Year to date precipitation 2.64  
Sea Level Pressure  
Sea Level Pressure 30.02 in    
Wind  
Wind Speed 4 mph (NW)    
Max Wind Speed 16 mph    
Max Gust Speed 23 mph    
Visibility 10 miles    
Events      
T = Trace of Precipitation, MM = Missing Value Source: NWS Daily Summary

Daily Weather History Graph

Daily Weather History Graph

Search for Another Location

Airport:

Trip Planner

Search our weather history database for the weather conditions in past years. The results will help you decide how hot, cold, wet, or windy it might be!

Date:

Astronomy

Mar. 18, 2014 Rise Set
Actual Time 6:38 AM MST 6:42 PM MST
Civil Twilight 6:12 AM MST 7:08 PM MST
Nautical Twilight 5:42 AM MST 7:38 PM MST
Astronomical Twilight 5:11 AM MST 8:08 PM MST
Moon 8:59 PM MST (3/18) 7:33 AM MST (3/18)
Length of Visible Light 12h 55m
Length of Day
12h 03m
Waning Gibbous, 96% of the Moon is Illuminated
Mar 18
Waning Gibbous
Mar 23
Last Quarter
Mar 30
New
Apr 7
First Quarter
Apr 15
Full

Hourly Weather History & Observations

Time (MST) Temp. Windchill Dew Point Humidity Pressure Visibility Wind Dir Wind Speed Gust Speed Precip Events Conditions
12:15 AM 38.1 °F - 5.0 °F 25% 29.93 in 10.0 mi Calm Calm - N/A   Clear
12:35 AM 34.7 °F - 4.8 °F 29% 29.94 in 10.0 mi Calm Calm - N/A   Clear
12:55 AM 34.9 °F 32.0 °F 4.6 °F 28% 29.94 in 10.0 mi West 3.5 mph - N/A   Clear
1:15 AM 37.8 °F - 2.8 °F 23% 29.95 in 10.0 mi Calm Calm - N/A   Clear
1:35 AM 36.0 °F 32.1 °F 1.8 °F 24% 29.96 in 10.0 mi West 4.6 mph - N/A   Clear
1:55 AM 33.6 °F 27.5 °F 1.4 °F 26% 29.96 in 10.0 mi WNW 6.9 mph - N/A   Clear
2:15 AM 32.4 °F 26.9 °F 1.8 °F 27% 29.95 in 10.0 mi NNW 5.8 mph - N/A   Clear
2:35 AM 32.5 °F - 1.9 °F 27% 29.96 in 10.0 mi Calm Calm - N/A   Clear
2:55 AM 34.0 °F - 1.0 °F 25% 29.96 in 10.0 mi Calm Calm - N/A   Clear
3:15 AM 30.6 °F - 2.1 °F 30% 29.96 in 10.0 mi Calm Calm - N/A   Clear
3:35 AM 31.1 °F 26.4 °F 2.1 °F 29% 29.96 in 10.0 mi NNW 4.6 mph - N/A   Clear
3:55 AM 32.4 °F - 1.0 °F 26% 29.97 in 10.0 mi Calm Calm - N/A   Clear
4:15 AM 27.0 °F - 1.2 °F 33% 29.97 in 10.0 mi Calm Calm - N/A   Clear
4:35 AM 29.3 °F - 2.1 °F 31% 29.97 in 10.0 mi Calm Calm - N/A   Clear
4:55 AM 29.1 °F 24.1 °F 3.0 °F 33% 29.98 in 10.0 mi WNW 4.6 mph - N/A   Clear
5:15 AM 29.7 °F 26.1 °F 3.4 °F 33% 30.00 in 10.0 mi NNE 3.5 mph - N/A   Clear
5:35 AM 24.4 °F - 4.5 °F 42% 30.00 in 10.0 mi Calm Calm - N/A   Clear
5:55 AM 22.6 °F 15.3 °F 4.5 °F 46% 30.00 in 10.0 mi SE 5.8 mph - N/A   Clear
6:15 AM 20.5 °F 14.0 °F 3.6 °F 48% 30.00 in 10.0 mi ESE 4.6 mph - N/A   Clear
6:35 AM 20.7 °F - 3.6 °F 48% 30.01 in 10.0 mi Calm Calm - N/A   Clear
6:55 AM 20.8 °F 14.4 °F 3.4 °F 47% 30.02 in 10.0 mi ESE 4.6 mph - N/A   Clear
7:15 AM 20.3 °F - 3.7 °F 49% 30.03 in 10.0 mi Calm Calm - N/A   Clear
7:35 AM 25.2 °F - 4.8 °F 42% 30.03 in 10.0 mi Calm Calm - N/A   Clear
7:55 AM 30.7 °F 27.3 °F 5.0 °F 34% 30.04 in 10.0 mi SSE 3.5 mph - N/A   Clear
8:15 AM 33.8 °F - 4.8 °F 30% 30.05 in 10.0 mi Calm Calm - N/A   Clear
8:35 AM 37.4 °F - 4.5 °F 25% 30.05 in 10.0 mi Calm Calm - N/A   Clear
8:55 AM 39.0 °F - 3.2 °F 22% 30.05 in 10.0 mi Calm Calm - N/A   Clear
9:15 AM 40.1 °F - 2.5 °F 21% 30.06 in 10.0 mi Calm Calm - N/A   Clear
9:35 AM 41.9 °F 40.0 °F 1.6 °F 19% 30.07 in 10.0 mi ENE 3.5 mph - N/A   Clear
9:55 AM 42.8 °F - 1.2 °F 18% 30.07 in 10.0 mi Calm Calm - N/A   Clear
10:15 AM 42.6 °F - 1.4 °F 18% 30.07 in 10.0 mi Calm Calm - N/A   Clear
10:35 AM 44.4 °F - 1.0 °F 17% 30.06 in 10.0 mi Calm Calm - N/A   Clear
10:55 AM 43.9 °F - 1.6 °F 17% 30.06 in 10.0 mi Calm Calm - N/A   Clear
11:15 AM 45.7 °F 42.0 °F 1.4 °F 16% 30.05 in 10.0 mi SSE 6.9 mph - N/A   Clear
11:35 AM 46.2 °F 43.3 °F 0.7 °F 15% 30.05 in 10.0 mi South 5.8 mph - N/A   Clear
11:55 AM 47.1 °F - -0.0 °F 14% 30.05 in 10.0 mi North 5.8 mph - N/A   Clear
12:15 PM 47.7 °F - -0.2 °F 14% 30.04 in 10.0 mi NE 3.5 mph - N/A   Clear
12:35 PM 48.6 °F - 0.1 °F 14% 30.04 in 10.0 mi NW 3.5 mph - N/A   Clear
12:55 PM 49.3 °F - -0.2 °F 13% 30.03 in 10.0 mi NW 3.5 mph - N/A   Clear
1:15 PM 50.7 °F - -0.4 °F 12% 30.02 in 10.0 mi SW 5.8 mph - N/A   Clear
1:35 PM 51.6 °F - -0.2 °F 12% 30.01 in 10.0 mi NW 6.9 mph - N/A   Clear
1:55 PM 52.2 °F - -0.4 °F 12% 30.00 in 10.0 mi NNW 6.9 mph - N/A   Clear
2:15 PM 53.1 °F - -0.8 °F 11% 30.00 in 10.0 mi NW 8.1 mph - N/A   Clear
2:35 PM 53.1 °F - -1.3 °F 11% 30.00 in 10.0 mi Calm Calm - N/A   Clear
2:55 PM 53.4 °F - -1.8 °F 10% 29.99 in 10.0 mi NNE 3.5 mph - N/A   Clear
3:15 PM 54.1 °F - 0.5 °F 11% 29.99 in 10.0 mi SW 6.9 mph - N/A   Clear
3:35 PM 55.2 °F - 1.0 °F 11% 29.99 in 10.0 mi WNW 10.4 mph - N/A   Clear
3:55 PM 54.5 °F - 0.3 °F 11% 29.99 in 10.0 mi NNW 9.2 mph 16.1 mph N/A   Clear
4:15 PM 54.1 °F - 1.0 °F 12% 29.99 in 10.0 mi West 12.7 mph 23.0 mph N/A   Clear
4:35 PM 53.8 °F - 0.9 °F 12% 29.99 in 10.0 mi NW 12.7 mph 18.4 mph N/A   Clear
4:55 PM 53.6 °F - 0.5 °F 11% 30.00 in 10.0 mi NW 12.7 mph 18.4 mph N/A   Clear
5:15 PM 53.2 °F - -0.4 °F 11% 30.00 in 10.0 mi WNW 15.0 mph 20.7 mph N/A   Clear
5:35 PM 52.5 °F - -0.6 °F 11% 30.00 in 10.0 mi WNW 13.8 mph 18.4 mph N/A   Clear
5:55 PM 51.8 °F - -0.0 °F 12% 30.01 in 10.0 mi NW 16.1 mph 23.0 mph N/A   Clear
6:15 PM 50.2 °F - -0.0 °F 13% 30.01 in 10.0 mi NW 15.0 mph 19.6 mph N/A   Clear
6:35 PM 48.2 °F - 0.3 °F 14% 30.01 in 10.0 mi NW 16.1 mph - N/A   Clear
6:55 PM 45.9 °F 42.3 °F 0.1 °F 15% 30.03 in 10.0 mi NW 6.9 mph - N/A   Clear
7:15 PM 44.2 °F 37.0 °F -0.9 °F 15% 30.03 in 10.0 mi NW 16.1 mph - N/A   Clear
7:35 PM 43.3 °F 37.2 °F -0.9 °F 16% 30.04 in 10.0 mi NW 11.5 mph - N/A   Clear
7:55 PM 42.8 °F 36.2 °F -0.8 °F 16% 30.05 in 10.0 mi NW 12.7 mph - N/A   Clear
8:15 PM 41.7 °F 35.6 °F -2.0 °F 16% 30.05 in 10.0 mi NW 10.4 mph - N/A   Clear
8:35 PM 41.0 °F 33.5 °F -0.0 °F 18% 30.07 in 10.0 mi NW 13.8 mph 19.6 mph N/A   Clear
8:55 PM 40.8 °F 34.5 °F -1.1 °F 17% 30.07 in 10.0 mi NW 10.4 mph - N/A   Clear
9:15 PM 40.5 °F 34.6 °F -1.7 °F 17% 30.08 in 10.0 mi NW 9.2 mph - N/A   Clear
9:35 PM 39.4 °F 36.1 °F -1.3 °F 18% 30.09 in 10.0 mi NNW 4.6 mph - N/A   Clear
9:55 PM 40.5 °F 34.6 °F -2.2 °F 17% 30.10 in 10.0 mi North 9.2 mph - N/A   Clear
10:15 PM 40.1 °F 36.1 °F -2.4 °F 17% 30.11 in 10.0 mi North 5.8 mph - N/A   Clear
10:35 PM 40.3 °F 38.2 °F -1.7 °F 17% 30.11 in 10.0 mi NW 3.5 mph - N/A   Clear
10:55 PM 37.4 °F - -0.8 °F 20% 30.12 in 10.0 mi Calm Calm - N/A   Clear
11:15 PM 36.3 °F 30.8 °F -0.0 °F 22% 30.12 in 10.0 mi NW 6.9 mph - N/A   Clear
11:35 PM 35.8 °F 33.0 °F -0.2 °F 22% 30.13 in 10.0 mi North 3.5 mph - N/A   Clear
11:55 PM 33.1 °F - 0.1 °F 25% 30.14 in 10.0 mi Calm Calm - N/A   Clear